RYR9MZ LMML-LEBL

Flight info

Callsign RYR9MZ
Flight time 1h 59m
Altitude 36000
Route GZO M622 SOPIR DCT ADEXI DCT EPIKU DCT GINOX DCT KIFMI/N0387F280 DCT ELVOP DCT MUREN DCT CHELY DCT VERSO
Aircraft B738/M-SDE3FGIJ1LRWY/SB1

Departure

Time 2026-05-05 17:22
Airport Malta International Airport (LMML)

Arrival

Time 2026-05-05 19:21
Airport Josep Tarradellas Barcelona-El Prat Airport (LEBL)
Time Latitude Longitude Altitude Speed Heading
2026-05-05 16:55 35.84859 14.49455 258 ft 0 kts 360°
2026-05-05 17:18 35.84860 14.49455 258 ft 0 kts 360°
2026-05-05 17:18 35.84862 14.49447 258 ft 1 kts 281°
2026-05-05 17:18 35.84853 14.49437 258 ft 3 kts 224°
2026-05-05 17:19 35.84837 14.49393 258 ft 9 kts 281°
2026-05-05 17:19 35.84891 14.49322 258 ft 13 kts 315°
2026-05-05 17:19 35.84936 14.49221 257 ft 14 kts 277°
2026-05-05 17:19 35.84900 14.49134 258 ft 9 kts 258°
2026-05-05 17:20 35.84928 14.49056 257 ft 13 kts 293°
2026-05-05 17:20 35.84874 14.48974 257 ft 17 kts 176°
2026-05-05 17:20 35.84789 14.48958 258 ft 7 kts 207°
2026-05-05 17:20 35.84755 14.48979 258 ft 6 kts 136°
2026-05-05 17:21 35.84621 14.49144 258 ft 62 kts 135°
2026-05-05 17:21 35.84343 14.49488 257 ft 108 kts 135°
2026-05-05 17:21 35.83689 14.50307 397 ft 150 kts 134°
2026-05-05 17:22 35.81810 14.51267 1852 ft 173 kts 198°
2026-05-05 17:22 35.80841 14.50182 2218 ft 208 kts 238°
2026-05-05 17:22 35.80115 14.48588 2805 ft 219 kts 236°
2026-05-05 17:22 35.79282 14.46868 3072 ft 250 kts 236°
2026-05-05 17:23 35.78363 14.44980 3781 ft 261 kts 237°
2026-05-05 17:23 35.77423 14.43058 4741 ft 263 kts 238°
2026-05-05 17:23 35.76470 14.41113 5653 ft 266 kts 238°
2026-05-05 17:23 35.75753 14.38986 6465 ft 275 kts 260°
2026-05-05 17:24 35.75798 14.36632 7360 ft 277 kts 283°
2026-05-05 17:24 35.76586 14.34481 8340 ft 278 kts 305°
2026-05-05 17:24 35.78019 14.32863 9241 ft 284 kts 327°
2026-05-05 17:24 35.79832 14.31836 10112 ft 289 kts 336°
2026-05-05 17:25 35.81759 14.30919 10560 ft 309 kts 337°
2026-05-05 17:25 35.83127 14.30287 10687 ft 326 kts 338°
2026-05-05 17:25 35.86071 14.28926 11298 ft 345 kts 337°
2026-05-05 17:25 35.88332 14.27872 12068 ft 349 kts 337°
2026-05-05 17:26 35.90604 14.26802 12902 ft 351 kts 336°
2026-05-05 17:26 35.92894 14.25714 13696 ft 354 kts 336°
2026-05-05 17:26 35.95204 14.24612 14394 ft 358 kts 336°
2026-05-05 17:26 35.97539 14.23495 15117 ft 361 kts 336°
2026-05-05 17:27 35.99891 14.22370 15842 ft 364 kts 336°
2026-05-05 17:27 36.02258 14.21236 16556 ft 367 kts 336°
2026-05-05 17:27 36.04590 14.19940 17221 ft 369 kts 327°
2026-05-05 17:27 36.06719 14.18162 17925 ft 370 kts 322°
2026-05-05 17:28 36.08802 14.16270 18584 ft 373 kts 321°
2026-05-05 17:28 36.10891 14.14347 19175 ft 376 kts 321°
2026-05-05 17:28 36.13004 14.12413 19765 ft 380 kts 321°
2026-05-05 17:28 36.15143 14.10475 20356 ft 383 kts 321°
2026-05-05 17:29 36.17310 14.08529 20937 ft 386 kts 322°
2026-05-05 17:29 36.19497 14.06577 21498 ft 389 kts 322°
2026-05-05 17:29 36.21706 14.04611 22052 ft 393 kts 322°
2026-05-05 17:29 36.23935 14.02628 22597 ft 396 kts 322°
2026-05-05 17:30 36.26154 14.00656 23126 ft 399 kts 322°
2026-05-05 17:30 36.28451 13.98612 23657 ft 403 kts 322°
2026-05-05 17:30 36.30703 13.96607 24092 ft 405 kts 322°
2026-05-05 17:30 36.32999 13.94561 24555 ft 408 kts 322°
2026-05-05 17:31 36.35307 13.92503 25002 ft 410 kts 322°
2026-05-05 17:31 36.37628 13.90432 25457 ft 412 kts 322°
2026-05-05 17:31 36.39962 13.88347 25887 ft 415 kts 322°
2026-05-05 17:31 36.42310 13.86248 26323 ft 417 kts 322°
2026-05-05 17:32 36.44668 13.84139 26762 ft 419 kts 322°
2026-05-05 17:32 36.47042 13.82014 27157 ft 422 kts 322°
2026-05-05 17:32 36.49432 13.79873 27550 ft 424 kts 322°
2026-05-05 17:32 36.51832 13.77721 27945 ft 427 kts 322°
2026-05-05 17:33 36.54246 13.75556 28346 ft 429 kts 321°
2026-05-05 17:33 36.56671 13.73380 28718 ft 431 kts 321°
2026-05-05 17:33 36.59111 13.71188 29088 ft 434 kts 321°
2026-05-05 17:33 36.61562 13.68985 29451 ft 436 kts 321°
2026-05-05 17:34 36.64023 13.66770 29813 ft 438 kts 321°
2026-05-05 17:34 36.66494 13.64546 30252 ft 437 kts 321°
2026-05-05 17:34 36.68951 13.62333 30735 ft 434 kts 321°
2026-05-05 17:34 36.71389 13.60135 31235 ft 431 kts 321°
2026-05-05 17:35 36.73813 13.57948 31668 ft 430 kts 321°
2026-05-05 17:35 36.76231 13.55763 32038 ft 429 kts 321°
2026-05-05 17:35 36.78651 13.53575 32420 ft 429 kts 321°
2026-05-05 17:35 36.81061 13.51394 32823 ft 427 kts 321°
2026-05-05 17:36 36.83462 13.49220 33251 ft 426 kts 321°
2026-05-05 17:36 36.85861 13.47046 33589 ft 426 kts 321°
2026-05-05 17:36 36.88264 13.44865 33900 ft 427 kts 321°
2026-05-05 17:36 36.90656 13.42693 34274 ft 425 kts 321°
2026-05-05 17:37 36.93043 13.40525 34641 ft 423 kts 321°
2026-05-05 17:37 36.95417 13.38367 34964 ft 422 kts 321°
2026-05-05 17:37 36.97786 13.36212 35263 ft 421 kts 320°
2026-05-05 17:37 37.00154 13.34055 35555 ft 421 kts 320°
2026-05-05 17:38 37.02515 13.31903 35869 ft 419 kts 320°
2026-05-05 17:38 37.04872 13.29753 36065 ft 421 kts 320°
2026-05-05 17:38 37.07218 13.27609 36052 ft 424 kts 320°
2026-05-05 17:39 37.11982 13.23256 36051 ft 422 kts 320°
2026-05-05 17:39 37.16675 13.18963 36052 ft 416 kts 320°
2026-05-05 17:40 37.21351 13.14675 36057 ft 416 kts 320°
2026-05-05 17:40 37.26029 13.10377 36057 ft 417 kts 320°
2026-05-05 17:41 37.30712 13.06070 36055 ft 418 kts 320°
2026-05-05 17:41 37.35330 13.01656 36046 ft 416 kts 313°
2026-05-05 17:42 37.39375 12.96483 36053 ft 415 kts 310°
2026-05-05 17:42 37.43347 12.91216 36054 ft 415 kts 310°
2026-05-05 17:43 37.47341 12.85954 36054 ft 416 kts 310°
2026-05-05 17:43 37.51355 12.80702 36055 ft 417 kts 310°
2026-05-05 17:44 37.55385 12.75438 36054 ft 417 kts 310°
2026-05-05 17:44 37.59416 12.70169 36046 ft 418 kts 310°
2026-05-05 17:45 37.63447 12.64892 36047 ft 418 kts 310°
2026-05-05 17:45 37.67478 12.59604 36048 ft 418 kts 310°
2026-05-05 17:46 37.71505 12.54313 36046 ft 418 kts 310°
2026-05-05 17:46 37.75528 12.49018 36048 ft 417 kts 310°
2026-05-05 17:47 37.79543 12.43725 36047 ft 417 kts 310°
2026-05-05 17:47 37.83549 12.38434 36055 ft 416 kts 310°
2026-05-05 17:48 37.87549 12.33142 36044 ft 416 kts 310°
2026-05-05 17:48 37.91516 12.27887 36043 ft 415 kts 310°
2026-05-05 17:49 37.95497 12.22603 36039 ft 414 kts 310°
2026-05-05 17:49 37.99473 12.17316 36022 ft 414 kts 310°
2026-05-05 17:50 38.03444 12.12028 36032 ft 414 kts 310°
2026-05-05 17:50 38.07409 12.06739 36020 ft 414 kts 310°
2026-05-05 17:51 38.11371 12.01445 36017 ft 414 kts 310°
2026-05-05 17:51 38.15330 11.96146 36022 ft 413 kts 310°
2026-05-05 17:52 38.19288 11.90839 36021 ft 413 kts 309°
2026-05-05 17:52 38.23239 11.85532 36017 ft 414 kts 309°
2026-05-05 17:53 38.27194 11.80212 36023 ft 414 kts 309°
2026-05-05 17:53 38.31146 11.74887 36024 ft 414 kts 309°
2026-05-05 17:54 38.35102 11.69546 36020 ft 415 kts 309°
2026-05-05 17:54 38.39059 11.64196 36012 ft 415 kts 309°
2026-05-05 17:55 38.43018 11.58834 36016 ft 415 kts 309°
2026-05-05 17:55 38.46980 11.53458 36013 ft 416 kts 309°
2026-05-05 17:56 38.50944 11.48070 36014 ft 416 kts 309°
2026-05-05 17:56 38.54909 11.42673 36011 ft 417 kts 309°
2026-05-05 17:57 38.58874 11.37265 36017 ft 417 kts 309°
2026-05-05 17:57 38.62843 11.31841 36014 ft 418 kts 309°
2026-05-05 17:58 38.66785 11.26448 36003 ft 418 kts 309°
2026-05-05 17:58 38.70743 11.21021 36012 ft 418 kts 309°
2026-05-05 17:59 38.74710 11.15573 36011 ft 418 kts 309°
2026-05-05 17:59 38.78672 11.10122 36011 ft 418 kts 309°
2026-05-05 18:00 38.82636 11.04659 36015 ft 418 kts 308°
2026-05-05 18:00 38.86595 10.99194 36019 ft 418 kts 308°
2026-05-05 18:01 38.90554 10.93719 36017 ft 418 kts 308°
2026-05-05 18:01 38.94509 10.88239 36016 ft 418 kts 308°
2026-05-05 18:02 38.98459 10.82758 36014 ft 418 kts 308°
2026-05-05 18:02 39.02406 10.77270 36013 ft 418 kts 308°
2026-05-05 18:03 39.06348 10.71779 36011 ft 418 kts 308°
2026-05-05 18:03 39.10284 10.66287 36026 ft 417 kts 308°
2026-05-05 18:04 39.14219 10.60786 36011 ft 417 kts 308°
2026-05-05 18:04 39.18147 10.55288 36022 ft 417 kts 308°
2026-05-05 18:05 39.22040 10.49826 36010 ft 416 kts 308°
2026-05-05 18:05 39.25950 10.44332 36007 ft 415 kts 308°
2026-05-05 18:06 39.29849 10.38844 36006 ft 414 kts 308°
2026-05-05 18:06 39.33737 10.33361 36004 ft 414 kts 308°
2026-05-05 18:07 39.37616 10.27881 36008 ft 413 kts 308°
2026-05-05 18:07 39.41489 10.22399 36002 ft 413 kts 308°
2026-05-05 18:08 39.45357 10.16916 36008 ft 413 kts 308°
2026-05-05 18:08 39.49223 10.11425 36000 ft 412 kts 308°
2026-05-05 18:09 39.53085 10.05930 36000 ft 412 kts 308°
2026-05-05 18:09 39.56942 10.00433 36000 ft 412 kts 308°
2026-05-05 18:10 39.60797 9.94928 36009 ft 412 kts 307°
2026-05-05 18:10 39.64002 9.90345 35999 ft 413 kts 307°
2026-05-05 18:11 39.67855 9.84825 35993 ft 413 kts 307°
2026-05-05 18:11 39.71709 9.79294 36006 ft 413 kts 307°
2026-05-05 18:12 39.75563 9.73753 35996 ft 413 kts 307°
2026-05-05 18:12 39.79411 9.68210 36000 ft 413 kts 307°
2026-05-05 18:13 39.83258 9.62660 35994 ft 413 kts 307°
2026-05-05 18:13 39.87104 9.57102 36011 ft 413 kts 307°
2026-05-05 18:14 39.90944 9.51541 36007 ft 413 kts 307°
2026-05-05 18:14 39.94758 9.46007 36008 ft 413 kts 307°
2026-05-05 18:15 39.98589 9.40439 36002 ft 412 kts 306°
2026-05-05 18:15 40.02412 9.34874 35993 ft 411 kts 306°
2026-05-05 18:16 40.06240 9.29291 35991 ft 410 kts 306°
2026-05-05 18:16 40.10006 9.23787 35991 ft 409 kts 306°
2026-05-05 18:17 40.13792 9.18243 35992 ft 409 kts 306°
2026-05-05 18:17 40.17576 9.12694 35991 ft 409 kts 306°
2026-05-05 18:18 40.21354 9.07143 36001 ft 408 kts 305°
2026-05-05 18:18 40.25121 9.01598 35993 ft 407 kts 305°
2026-05-05 18:19 40.28878 8.96059 35986 ft 406 kts 305°
2026-05-05 18:19 40.32622 8.90528 35983 ft 405 kts 305°
2026-05-05 18:20 40.36358 8.84998 35981 ft 405 kts 305°
2026-05-05 18:20 40.40086 8.79469 35977 ft 405 kts 305°
2026-05-05 18:21 40.43807 8.73942 35976 ft 404 kts 305°
2026-05-05 18:21 40.47528 8.68405 35972 ft 404 kts 304°
2026-05-05 18:22 40.51243 8.62867 35975 ft 405 kts 304°
2026-05-05 18:22 40.54963 8.57310 35980 ft 405 kts 304°
2026-05-05 18:23 40.58690 8.51733 35964 ft 406 kts 304°
2026-05-05 18:23 40.62391 8.46186 35967 ft 407 kts 304°
2026-05-05 18:24 40.66129 8.40571 35964 ft 408 kts 304°
2026-05-05 18:24 40.69869 8.34945 35971 ft 408 kts 304°
2026-05-05 18:25 40.73611 8.29304 35972 ft 409 kts 303°
2026-05-05 18:25 40.77350 8.23656 35969 ft 409 kts 303°
2026-05-05 18:26 40.81096 8.17991 35961 ft 409 kts 303°
2026-05-05 18:26 40.84487 8.12067 35958 ft 396 kts 289°
2026-05-05 18:27 40.86052 8.05265 35955 ft 382 kts 270°
2026-05-05 18:27 40.86338 7.98297 35952 ft 380 kts 269°
2026-05-05 18:28 40.87033 7.87817 35962 ft 382 kts 270°
2026-05-05 18:28 40.87540 7.80823 35951 ft 383 kts 270°
2026-05-05 18:29 40.88030 7.73819 35944 ft 383 kts 270°
2026-05-05 18:29 40.88506 7.66807 35945 ft 383 kts 270°
2026-05-05 18:30 40.88975 7.59798 35948 ft 383 kts 270°
2026-05-05 18:30 40.89439 7.52781 35955 ft 384 kts 270°
2026-05-05 18:31 40.89900 7.45752 35945 ft 384 kts 270°
2026-05-05 18:31 40.90356 7.38729 35937 ft 383 kts 270°
2026-05-05 18:32 40.90807 7.31708 35947 ft 383 kts 270°
2026-05-05 18:32 40.91251 7.24743 35932 ft 383 kts 270°
2026-05-05 18:33 40.91693 7.17735 35933 ft 382 kts 269°
2026-05-05 18:33 40.92130 7.10730 35929 ft 382 kts 269°
2026-05-05 18:34 40.92563 7.03732 35938 ft 382 kts 269°
2026-05-05 18:34 40.92991 6.96738 35924 ft 382 kts 269°
2026-05-05 18:35 40.93415 6.89748 35930 ft 381 kts 269°
2026-05-05 18:35 40.93834 6.82758 35943 ft 381 kts 269°
2026-05-05 18:36 40.94250 6.75756 35925 ft 382 kts 269°
2026-05-05 18:36 40.94662 6.68756 35916 ft 382 kts 269°
2026-05-05 18:37 40.95069 6.61755 35914 ft 382 kts 269°
2026-05-05 18:37 40.95472 6.54750 35915 ft 382 kts 269°
2026-05-05 18:38 40.95871 6.47748 35916 ft 382 kts 269°
2026-05-05 18:38 40.96266 6.40741 35923 ft 382 kts 269°
2026-05-05 18:39 40.96656 6.33730 35914 ft 382 kts 269°
2026-05-05 18:39 40.97042 6.26731 35914 ft 381 kts 269°
2026-05-05 18:40 40.97424 6.19738 35909 ft 381 kts 269°
2026-05-05 18:40 40.97800 6.12761 35909 ft 380 kts 269°
2026-05-05 18:41 40.98172 6.05784 35918 ft 380 kts 268°
2026-05-05 18:41 40.98536 5.98862 35911 ft 379 kts 268°
2026-05-05 18:42 40.98899 5.91905 35907 ft 379 kts 268°
2026-05-05 18:42 40.99256 5.84962 35903 ft 378 kts 268°
2026-05-05 18:43 40.99609 5.78025 35901 ft 377 kts 268°
2026-05-05 18:43 40.99957 5.71101 35901 ft 377 kts 268°
2026-05-05 18:44 41.00301 5.64173 35911 ft 377 kts 268°
2026-05-05 18:44 41.00640 5.57260 35901 ft 377 kts 268°
2026-05-05 18:45 41.00975 5.50337 35901 ft 377 kts 268°
2026-05-05 18:45 41.01307 5.43416 35898 ft 377 kts 267°
2026-05-05 18:46 41.01640 5.36498 35898 ft 377 kts 268°
2026-05-05 18:46 41.01820 5.33070 35750 ft 370 kts 268°
2026-05-05 18:46 41.02002 5.29695 35438 ft 364 kts 267°
2026-05-05 18:47 41.02180 5.26370 35074 ft 360 kts 267°
2026-05-05 18:47 41.02353 5.23082 34707 ft 357 kts 266°
2026-05-05 18:47 41.02523 5.19815 34332 ft 354 kts 266°
2026-05-05 18:47 41.02689 5.16577 33962 ft 351 kts 266°
2026-05-05 18:48 41.02853 5.13362 33558 ft 348 kts 266°
2026-05-05 18:48 41.03014 5.10177 33145 ft 346 kts 266°
2026-05-05 18:48 41.03173 5.07010 32742 ft 343 kts 266°
2026-05-05 18:48 41.03331 5.03869 32349 ft 341 kts 266°
2026-05-05 18:49 41.03486 5.00750 31960 ft 338 kts 266°
2026-05-05 18:49 41.03640 4.97656 31573 ft 336 kts 266°
2026-05-05 18:49 41.03791 4.94579 31227 ft 334 kts 266°
2026-05-05 18:49 41.03941 4.91527 30939 ft 329 kts 266°
2026-05-05 18:50 41.04237 4.85399 30891 ft 336 kts 266°
2026-05-05 18:50 41.04535 4.79302 30875 ft 324 kts 266°
2026-05-05 18:51 41.05001 4.73557 30867 ft 304 kts 269°
2026-05-05 18:51 41.05304 4.70844 30866 ft 292 kts 269°
2026-05-05 18:51 41.05590 4.68194 30873 ft 290 kts 269°
2026-05-05 18:52 41.05870 4.65562 30871 ft 286 kts 269°
2026-05-05 18:52 41.06152 4.62980 30871 ft 281 kts 269°
2026-05-05 18:52 41.06430 4.60432 30828 ft 277 kts 269°
2026-05-05 18:52 41.06705 4.57872 30151 ft 288 kts 269°
2026-05-05 18:53 41.06991 4.55143 29018 ft 310 kts 269°
2026-05-05 18:53 41.07294 4.52360 28858 ft 302 kts 269°
2026-05-05 18:53 41.07595 4.49620 28585 ft 297 kts 269°
2026-05-05 18:53 41.07889 4.46913 28222 ft 296 kts 269°
2026-05-05 18:54 41.08177 4.44231 27895 ft 294 kts 269°
2026-05-05 18:54 41.08463 4.41540 27603 ft 297 kts 270°
2026-05-05 18:54 41.08753 4.38772 27269 ft 309 kts 270°
2026-05-05 18:54 41.09047 4.35961 26920 ft 313 kts 270°
2026-05-05 18:55 41.09350 4.33119 26564 ft 310 kts 270°
2026-05-05 18:55 41.09652 4.30300 26219 ft 307 kts 270°
2026-05-05 18:55 41.09950 4.27506 25886 ft 305 kts 270°
2026-05-05 18:55 41.10244 4.24738 25569 ft 302 kts 270°
2026-05-05 18:56 41.10534 4.21990 25238 ft 299 kts 271°
2026-05-05 18:56 41.10818 4.19284 24950 ft 297 kts 271°
2026-05-05 18:56 41.11101 4.16580 24625 ft 295 kts 270°
2026-05-05 18:56 41.11382 4.13894 24297 ft 293 kts 270°
2026-05-05 18:57 41.11659 4.11228 23986 ft 291 kts 270°
2026-05-05 18:57 41.11935 4.08573 23670 ft 289 kts 270°
2026-05-05 18:57 41.12208 4.05939 23338 ft 288 kts 270°
2026-05-05 18:57 41.12479 4.03320 22974 ft 286 kts 271°
2026-05-05 18:58 41.12747 4.00720 22662 ft 283 kts 271°
2026-05-05 18:58 41.13013 3.98149 22359 ft 279 kts 271°
2026-05-05 18:58 41.13273 3.95625 22128 ft 274 kts 270°
2026-05-05 18:58 41.13529 3.93127 21831 ft 272 kts 270°
2026-05-05 18:59 41.13783 3.90636 21525 ft 273 kts 271°
2026-05-05 18:59 41.14036 3.88137 21224 ft 274 kts 271°
2026-05-05 18:59 41.14204 3.86478 21014 ft 275 kts 271°
2026-05-05 18:59 41.14462 3.83944 20730 ft 274 kts 271°
2026-05-05 19:00 41.14718 3.81440 20393 ft 273 kts 271°
2026-05-05 19:00 41.14970 3.78956 20139 ft 271 kts 270°
2026-05-05 19:00 41.15220 3.76483 19832 ft 270 kts 270°
2026-05-05 19:00 41.15468 3.74006 19383 ft 274 kts 271°
2026-05-05 19:01 41.15719 3.71504 19058 ft 273 kts 271°
2026-05-05 19:01 41.15970 3.69001 18734 ft 273 kts 271°
2026-05-05 19:01 41.16220 3.66505 18436 ft 272 kts 271°
2026-05-05 19:01 41.16469 3.64016 18131 ft 272 kts 271°
2026-05-05 19:02 41.16717 3.61535 17798 ft 271 kts 271°
2026-05-05 19:02 41.16963 3.59065 17484 ft 269 kts 271°
2026-05-05 19:02 41.17207 3.56613 17185 ft 267 kts 271°
2026-05-05 19:02 41.17449 3.54169 16901 ft 268 kts 271°
2026-05-05 19:03 41.17691 3.51713 16612 ft 270 kts 271°
2026-05-05 19:03 41.17935 3.49234 16321 ft 272 kts 271°
2026-05-05 19:03 41.18180 3.46738 16027 ft 274 kts 271°
2026-05-05 19:03 41.18427 3.44216 15734 ft 276 kts 271°
2026-05-05 19:04 41.18675 3.41675 15430 ft 279 kts 271°
2026-05-05 19:04 41.18926 3.39117 15124 ft 279 kts 272°
2026-05-05 19:04 41.19175 3.36566 14816 ft 278 kts 272°
2026-05-05 19:04 41.19423 3.34027 14516 ft 277 kts 272°
2026-05-05 19:05 41.19668 3.31500 14216 ft 276 kts 272°
2026-05-05 19:05 41.19912 3.28981 13917 ft 275 kts 272°
2026-05-05 19:05 41.20152 3.26500 13615 ft 274 kts 272°
2026-05-05 19:05 41.20394 3.23994 13282 ft 273 kts 272°
2026-05-05 19:06 41.20637 3.21466 12960 ft 272 kts 272°
2026-05-05 19:06 41.20872 3.19017 12661 ft 270 kts 272°
2026-05-05 19:06 41.21106 3.16550 12361 ft 269 kts 272°
2026-05-05 19:06 41.21327 3.14095 12054 ft 267 kts 272°
2026-05-05 19:07 41.21543 3.11650 11769 ft 266 kts 272°
2026-05-05 19:07 41.21758 3.09219 11481 ft 265 kts 272°
2026-05-05 19:07 41.21972 3.06797 11194 ft 263 kts 272°
2026-05-05 19:07 41.22185 3.04385 10915 ft 262 kts 273°
2026-05-05 19:08 41.22397 3.01983 10625 ft 261 kts 274°
2026-05-05 19:08 41.22692 2.99601 10282 ft 264 kts 281°
2026-05-05 19:08 41.23215 2.97240 9929 ft 267 kts 284°
2026-05-05 19:08 41.23787 2.94905 9650 ft 265 kts 285°
2026-05-05 19:09 41.24357 2.92584 9342 ft 264 kts 285°
2026-05-05 19:09 41.24917 2.90271 9025 ft 263 kts 285°
2026-05-05 19:09 41.25469 2.87958 8719 ft 261 kts 284°
2026-05-05 19:09 41.26012 2.85660 8414 ft 260 kts 284°
2026-05-05 19:10 41.26548 2.83364 8104 ft 260 kts 284°
2026-05-05 19:10 41.27080 2.81073 7802 ft 259 kts 284°
2026-05-05 19:10 41.27608 2.78792 7514 ft 257 kts 284°
2026-05-05 19:10 41.28131 2.76521 7230 ft 257 kts 284°
2026-05-05 19:11 41.28652 2.74254 6948 ft 256 kts 285°
2026-05-05 19:11 41.29171 2.71990 6644 ft 256 kts 285°
2026-05-05 19:11 41.29688 2.69730 6361 ft 255 kts 285°
2026-05-05 19:11 41.30204 2.67474 6065 ft 255 kts 285°
2026-05-05 19:12 41.30717 2.65222 5794 ft 253 kts 286°
2026-05-05 19:12 41.31226 2.62990 5510 ft 252 kts 285°
2026-05-05 19:12 41.31734 2.60760 5219 ft 251 kts 286°
2026-05-05 19:12 41.32240 2.58533 4925 ft 251 kts 286°
2026-05-05 19:13 41.32735 2.56355 4870 ft 241 kts 286°
2026-05-05 19:13 41.33211 2.54260 4790 ft 232 kts 286°
2026-05-05 19:13 41.33667 2.52247 4719 ft 223 kts 286°
2026-05-05 19:13 41.34108 2.50300 4643 ft 215 kts 286°
2026-05-05 19:14 41.34532 2.48427 4522 ft 208 kts 286°
2026-05-05 19:14 41.34946 2.46594 4316 ft 206 kts 286°
2026-05-05 19:14 41.35358 2.44768 4075 ft 206 kts 286°
2026-05-05 19:14 41.35770 2.42942 3833 ft 206 kts 286°
2026-05-05 19:15 41.36175 2.41148 3753 ft 196 kts 286°
2026-05-05 19:15 41.36555 2.39463 3635 ft 186 kts 286°
2026-05-05 19:15 41.36921 2.37835 3403 ft 182 kts 286°
2026-05-05 19:15 41.37284 2.36225 3124 ft 181 kts 286°
2026-05-05 19:16 41.37644 2.34623 2838 ft 179 kts 286°
2026-05-05 19:16 41.37970 2.33066 2599 ft 175 kts 278°
2026-05-05 19:16 41.37726 2.31487 2349 ft 176 kts 246°
2026-05-05 19:16 41.37226 2.29993 2324 ft 174 kts 250°
2026-05-05 19:17 41.36757 2.28543 2267 ft 166 kts 249°
2026-05-05 19:17 41.36302 2.27169 2271 ft 163 kts 249°
2026-05-05 19:17 41.35841 2.25799 2267 ft 161 kts 249°
2026-05-05 19:17 41.35378 2.24432 2271 ft 163 kts 248°
2026-05-05 19:18 41.34909 2.23041 2106 ft 168 kts 248°
2026-05-05 19:18 41.34438 2.21655 1889 ft 161 kts 248°
2026-05-05 19:18 41.33980 2.20322 1675 ft 157 kts 248°
2026-05-05 19:18 41.33528 2.19002 1451 ft 157 kts 247°
2026-05-05 19:19 41.33072 2.17675 1239 ft 158 kts 248°
2026-05-05 19:19 41.32617 2.16347 1033 ft 157 kts 248°
2026-05-05 19:19 41.32172 2.15051 836 ft 147 kts 248°
2026-05-05 19:19 41.31758 2.13841 659 ft 141 kts 246°
2026-05-05 19:20 41.31349 2.12635 414 ft 146 kts 245°
2026-05-05 19:20 41.30924 2.11393 236 ft 149 kts 244°
2026-05-05 19:20 41.30491 2.10113 38 ft 154 kts 243°
2026-05-05 19:20 41.30080 2.08938 17 ft 115 kts 245°
2026-05-05 19:21 41.29827 2.08197 20 ft 68 kts 245°
2026-05-05 19:21 41.29750 2.07790 15 ft 34 kts 270°
2026-05-05 19:21 41.29779 2.07630 13 ft 17 kts 324°
2026-05-05 19:21 41.29871 2.07627 15 ft 14 kts 35°
2026-05-05 19:22 41.29920 2.07745 15 ft 16 kts 65°
2026-05-05 19:22 41.29968 2.07887 16 ft 18 kts 64°
2026-05-05 19:22 41.30018 2.08040 18 ft 18 kts 69°
2026-05-05 19:22 41.30070 2.08185 18 ft 16 kts 65°
2026-05-05 19:23 41.30168 2.08189 17 ft 15 kts 345°
2026-05-05 19:23 41.30233 2.08214 18 ft 7 kts 26°
2026-05-05 19:23 41.30279 2.08231 21 ft 7 kts
2026-05-05 19:23 41.30309 2.08240 20 ft 2 kts 13°
2026-05-05 19:24 41.30310 2.08240 20 ft 0 kts 13°